Time,TemperatureF,DewpointF,PressureIn,WindDirection,WindDirectionDegrees,WindSpeedMPH,WindSpeedGustMPH,Humidity,HourlyPrecipIn,Conditions,Clouds,dailyrainin,SoftwareType,DateUTC
2013-05-22 00:14:00,76.3,69.0,29.81,SW,223,0.0,-999.0,77,-99.99,,,0.00,weatherlink.com 1.10,2013-05-22 04:14:00,
2013-05-22 00:29:00,76.0,69.0,29.81,SW,234,0.0,-999.0,78,-99.99,,,0.00,weatherlink.com 1.10,2013-05-22 04:29:00,
2013-05-22 00:44:00,75.7,69.0,29.81,SSW,207,0.0,-999.0,79,-99.99,,,0.00,weatherlink.com 1.10,2013-05-22 04:44:00,
2013-05-22 00:59:00,75.4,69.0,29.81,West,274,4.0,-999.0,79,-99.99,,,0.00,weatherlink.com 1.10,2013-05-22 04:59:00,
2013-05-22 01:14:00,75.1,68.0,29.81,West,269,0.0,-999.0,79,-99.99,,,0.00,weatherlink.com 1.10,2013-05-22 05:14:00,
2013-05-22 01:29:00,74.0,68.0,29.82,West,269,0.0,-999.0,80,-99.99,,,0.00,weatherlink.com 1.10,2013-05-22 05:29:00,
2013-05-22 01:44:00,73.0,67.0,29.82,West,269,0.0,-999.0,82,-99.99,,,0.00,weatherlink.com 1.10,2013-05-22 05:44:00,
2013-05-22 01:59:00,72.0,67.0,29.82,West,271,0.0,-999.0,83,-99.99,,,0.00,weatherlink.com 1.10,2013-05-22 05:59:00,
2013-05-22 02:14:00,71.1,66.0,29.81,West,271,0.0,-999.0,85,-99.99,,,0.00,weatherlink.com 1.10,2013-05-22 06:14:00,
2013-05-22 02:29:00,70.4,66.0,29.81,West,271,0.0,-999.0,85,-99.99,,,0.00,weatherlink.com 1.10,2013-05-22 06:29:00,
2013-05-22 02:45:00,69.8,66.0,29.81,West,271,0.0,-999.0,86,-99.99,,,0.00,weatherlink.com 1.10,2013-05-22 06:45:00,
2013-05-22 03:00:00,69.1,65.0,29.80,West,271,0.0,-999.0,87,-99.99,,,0.00,weatherlink.com 1.10,2013-05-22 07:00:00,
2013-05-22 03:15:00,68.5,65.0,29.81,West,271,0.0,-999.0,88,-99.99,,,0.00,weatherlink.com 1.10,2013-05-22 07:15:00,
2013-05-22 03:30:00,68.0,64.0,29.80,West,271,0.0,-999.0,88,-99.99,,,0.00,weatherlink.com 1.10,2013-05-22 07:30:00,
2013-05-22 03:45:00,67.5,64.0,29.80,West,271,0.0,-999.0,88,-99.99,,,0.00,weatherlink.com 1.10,2013-05-22 07:45:00,
2013-05-22 04:00:00,67.2,64.0,29.80,West,271,0.0,-999.0,89,-99.99,,,0.00,weatherlink.com 1.10,2013-05-22 08:00:00,
2013-05-22 04:15:00,67.0,64.0,29.80,West,271,0.0,-999.0,90,-99.99,,,0.00,weatherlink.com 1.10,2013-05-22 08:15:00,
2013-05-22 04:30:00,66.8,64.0,29.80,West,271,0.0,-999.0,90,-99.99,,,0.00,weatherlink.com 1.10,2013-05-22 08:30:00,
2013-05-22 04:45:00,66.6,64.0,29.80,West,271,0.0,-999.0,90,-99.99,,,0.00,weatherlink.com 1.10,2013-05-22 08:45:00,
2013-05-22 05:00:00,66.4,64.0,29.80,West,271,0.0,-999.0,91,-99.99,,,0.00,weatherlink.com 1.10,2013-05-22 09:00:00,
2013-05-22 05:15:00,66.2,64.0,29.81,West,271,0.0,-999.0,91,-99.99,,,0.00,weatherlink.com 1.10,2013-05-22 09:15:00,
2013-05-22 05:30:00,66.0,63.0,29.81,West,271,0.0,-999.0,91,-99.99,,,0.00,weatherlink.com 1.10,2013-05-22 09:30:00,
2013-05-22 05:45:00,65.7,63.0,29.81,West,271,0.0,-999.0,92,-99.99,,,0.00,weatherlink.com 1.10,2013-05-22 09:45:00,
2013-05-22 06:00:00,65.4,63.0,29.81,West,271,0.0,-999.0,92,-99.99,,,0.00,weatherlink.com 1.10,2013-05-22 10:00:00,
2013-05-22 06:15:00,65.2,63.0,29.82,West,271,0.0,-999.0,92,-99.99,,,0.00,weatherlink.com 1.10,2013-05-22 10:15:00,
2013-05-22 06:30:00,65.1,63.0,29.83,West,271,0.0,-999.0,93,-99.99,,,0.00,weatherlink.com 1.10,2013-05-22 10:30:00,
2013-05-22 06:45:00,65.1,63.0,29.83,West,271,0.0,-999.0,93,-99.99,,,0.00,weatherlink.com 1.10,2013-05-22 10:45:00,
2013-05-22 07:00:00,65.3,63.0,29.83,West,271,0.0,-999.0,93,-99.99,,,0.00,weatherlink.com 1.10,2013-05-22 11:00:00,
2013-05-22 07:15:00,65.9,64.0,29.83,West,271,0.0,-999.0,94,-99.99,,,0.00,weatherlink.com 1.10,2013-05-22 11:15:00,
2013-05-22 07:30:00,66.8,65.0,29.84,West,271,0.0,-999.0,94,-99.99,,,0.00,weatherlink.com 1.10,2013-05-22 11:30:00,
2013-05-22 07:45:00,67.9,67.0,29.84,West,271,0.0,-999.0,95,-99.99,,,0.00,weatherlink.com 1.10,2013-05-22 11:45:00,
2013-05-22 08:00:00,69.3,68.0,29.84,West,271,0.0,-999.0,95,-99.99,,,0.00,weatherlink.com 1.10,2013-05-22 12:00:00,
2013-05-22 08:15:00,70.9,70.0,29.84,West,271,0.0,-999.0,95,-99.99,,,0.00,weatherlink.com 1.10,2013-05-22 12:15:00,
2013-05-22 08:30:00,72.3,71.0,29.84,West,271,1.0,-999.0,95,-99.99,,,0.00,weatherlink.com 1.10,2013-05-22 12:30:00,
2013-05-22 08:45:00,73.9,72.0,29.84,West,281,0.0,-999.0,92,-99.99,,,0.00,weatherlink.com 1.10,2013-05-22 12:45:00,
2013-05-22 09:00:00,75.5,71.0,29.84,WNW,285,0.0,-999.0,87,-99.99,,,0.00,weatherlink.com 1.10,2013-05-22 13:00:00,
2013-05-22 09:15:00,76.5,71.0,29.85,West,263,2.0,-999.0,83,-99.99,,,0.00,weatherlink.com 1.10,2013-05-22 13:15:00,
2013-05-22 09:30:00,77.4,72.0,29.84,WNW,298,2.0,-999.0,83,-99.99,,,0.00,weatherlink.com 1.10,2013-05-22 13:30:00,
2013-05-22 09:45:00,78.0,71.0,29.85,SSW,212,4.0,-999.0,79,-99.99,,,0.00,weatherlink.com 1.10,2013-05-22 13:45:00,
2013-05-22 10:00:00,78.2,70.0,29.85,SSW,211,2.0,-999.0,77,-99.99,,,0.00,weatherlink.com 1.10,2013-05-22 14:00:00,
2013-05-22 10:15:00,78.9,71.0,29.85,SSW,213,5.0,-999.0,76,-99.99,,,0.00,weatherlink.com 1.10,2013-05-22 14:15:00,
2013-05-22 10:30:00,79.7,70.0,29.85,SW,229,3.0,-999.0,72,-99.99,,,0.00,weatherlink.com 1.10,2013-05-22 14:30:00,
2013-05-22 10:45:00,79.6,70.0,29.85,WSW,250,0.0,-999.0,72,-99.99,,,0.00,weatherlink.com 1.10,2013-05-22 14:45:00,
2013-05-22 11:00:00,79.6,69.0,29.85,SSW,198,2.0,-999.0,70,-99.99,,,0.00,weatherlink.com 1.10,2013-05-22 15:00:00,
2013-05-22 11:15:00,80.1,68.0,29.84,South,191,3.0,-999.0,67,-99.99,,,0.00,weatherlink.com 1.10,2013-05-22 15:15:00,
2013-05-22 11:30:00,81.8,68.0,29.84,SSW,204,1.0,-999.0,64,-99.99,,,0.00,weatherlink.com 1.10,2013-05-22 15:30:00,
2013-05-22 11:45:00,83.4,68.0,29.84,WSW,257,2.0,-999.0,60,-99.99,,,0.00,weatherlink.com 1.10,2013-05-22 15:45:00,
2013-05-22 12:01:00,84.3,68.0,29.83,WSW,258,2.0,-999.0,59,-99.99,,,0.00,weatherlink.com 1.10,2013-05-22 16:01:00,
2013-05-22 12:10:00,85.1,68.2,29.83,WSW,250,2.0,5.0,57,0.00,,,0.00,Wunderground v.1.15,2013-05-22 16:10:00,
2013-05-22 12:15:00,85.4,68.4,29.83,SW,225,3.0,5.0,57,0.00,,,0.00,Wunderground v.1.15,2013-05-22 16:15:00,
2013-05-22 12:25:00,85.7,67.7,29.82,SW,217,3.0,3.0,55,0.00,,,0.00,Wunderground v.1.15,2013-05-22 16:25:00,
2013-05-22 12:30:00,86.0,68.0,29.82,WNW,289,2.0,3.0,55,0.00,,,0.00,Wunderground v.1.15,2013-05-22 16:30:00,
2013-05-22 12:32:00,86.2,69.0,29.82,West,275,2.0,-999.0,56,-99.99,,,0.00,weatherlink.com 1.10,2013-05-22 16:32:00,
2013-05-22 12:46:00,87.0,68.0,29.82,WSW,257,4.0,-999.0,54,-99.99,,,0.00,weatherlink.com 1.10,2013-05-22 16:46:00,
2013-05-22 13:01:00,88.1,67.0,29.81,South,173,4.0,-999.0,49,-99.99,,,0.00,weatherlink.com 1.10,2013-05-22 17:01:00,
2013-05-22 13:16:00,88.3,67.0,29.81,West,272,5.0,-999.0,49,-99.99,,,0.00,weatherlink.com 1.10,2013-05-22 17:16:00,
2013-05-22 13:25:00,88.4,65.0,29.81,SW,222,3.0,7.0,46,0.00,,,0.00,Wunderground v.1.15,2013-05-22 17:25:00,
2013-05-22 13:31:00,88.7,65.0,29.80,SSW,207,4.0,-999.0,46,-99.99,,,0.00,weatherlink.com 1.10,2013-05-22 17:31:00,
2013-05-22 13:46:00,89.3,66.0,29.80,WSW,250,3.0,-999.0,46,-99.99,,,0.00,weatherlink.com 1.10,2013-05-22 17:46:00,
2013-05-22 14:01:00,89.7,67.0,29.80,WSW,254,6.0,-999.0,47,-99.99,,,0.00,weatherlink.com 1.10,2013-05-22 18:01:00,
2013-05-22 14:16:00,90.3,66.0,29.79,WSW,238,0.0,-999.0,45,-99.99,,,0.00,weatherlink.com 1.10,2013-05-22 18:16:00,
2013-05-22 14:31:00,90.7,67.0,29.79,SW,215,6.0,-999.0,45,-99.99,,,0.00,weatherlink.com 1.10,2013-05-22 18:31:00,
2013-05-22 14:46:00,91.0,67.0,29.78,WSW,245,4.0,-999.0,45,-99.99,,,0.00,weatherlink.com 1.10,2013-05-22 18:46:00,
2013-05-22 15:01:00,91.6,65.0,29.78,West,280,10.0,-999.0,42,-99.99,,,0.00,weatherlink.com 1.10,2013-05-22 19:01:00,
2013-05-22 15:17:00,91.4,66.0,29.78,South,187,5.0,-999.0,43,-99.99,,,0.00,weatherlink.com 1.10,2013-05-22 19:17:00,
2013-05-22 15:32:00,91.5,67.0,29.77,WSW,254,5.0,-999.0,44,-99.99,,,0.00,weatherlink.com 1.10,2013-05-22 19:32:00,
2013-05-22 15:47:00,91.3,67.0,29.77,SW,218,3.0,-999.0,45,-99.99,,,0.00,weatherlink.com 1.10,2013-05-22 19:47:00,
2013-05-22 15:50:00,91.5,67.8,29.77,ESE,118,2.0,2.0,46,0.00,,,0.00,Wunderground v.1.15,2013-05-22 19:50:00,
2013-05-22 15:55:00,92.0,67.6,29.77,SSW,201,3.0,3.0,45,0.00,,,0.00,Wunderground v.1.15,2013-05-22 19:55:00,
2013-05-22 16:00:00,92.2,67.8,29.76,SSW,211,3.0,3.0,45,0.00,,,0.00,Wunderground v.1.15,2013-05-22 20:00:00,
2013-05-22 16:02:00,92.4,68.0,29.77,SSW,195,5.0,-999.0,45,-99.99,,,0.00,weatherlink.com 1.10,2013-05-22 20:02:00,
2013-05-22 16:10:00,92.7,68.2,29.76,SSW,207,3.0,7.0,45,0.00,,,0.00,Wunderground v.1.15,2013-05-22 20:10:00,
2013-05-22 16:15:00,92.5,66.1,29.76,SSW,200,4.0,7.0,42,0.00,,,0.00,Wunderground v.1.15,2013-05-22 20:15:00,
2013-05-22 16:17:00,92.5,67.0,29.76,SW,223,5.0,-999.0,43,-99.99,,,0.00,weatherlink.com 1.10,2013-05-22 20:17:00,
2013-05-22 16:25:00,92.1,65.7,29.76,SW,225,4.0,7.0,42,0.00,,,0.00,Wunderground v.1.15,2013-05-22 20:25:00,
2013-05-22 16:30:00,91.9,65.5,29.75,WSW,240,4.0,7.0,42,0.00,,,0.00,Wunderground v.1.15,2013-05-22 20:30:00,
2013-05-22 16:32:00,91.8,66.0,29.75,SW,229,6.0,-999.0,43,-99.99,,,0.00,weatherlink.com 1.10,2013-05-22 20:32:00,
2013-05-22 16:47:00,92.1,66.0,29.75,North,11,2.0,-999.0,42,-99.99,,,0.00,weatherlink.com 1.10,2013-05-22 20:47:00,
2013-05-22 17:02:00,92.8,66.0,29.74,West,264,0.0,-999.0,42,-99.99,,,0.00,weatherlink.com 1.10,2013-05-22 21:02:00,
2013-05-22 17:17:00,92.7,67.0,29.73,SSW,196,3.0,-999.0,43,-99.99,,,0.00,weatherlink.com 1.10,2013-05-22 21:17:00,
2013-05-22 17:32:00,92.5,68.0,29.73,South,187,6.0,-999.0,44,-99.99,,,0.00,weatherlink.com 1.10,2013-05-22 21:32:00,
2013-05-22 17:47:00,92.7,69.0,29.73,SW,229,3.0,-999.0,46,-99.99,,,0.00,weatherlink.com 1.10,2013-05-22 21:47:00,
2013-05-22 18:02:00,91.7,67.0,29.73,West,263,4.0,-999.0,44,-99.99,,,0.00,weatherlink.com 1.10,2013-05-22 22:02:00,
2013-05-22 18:17:00,91.6,67.0,29.73,SSE,162,0.0,-999.0,44,-99.99,,,0.00,weatherlink.com 1.10,2013-05-22 22:17:00,
2013-05-22 18:32:00,91.2,66.0,29.73,SW,225,2.0,-999.0,44,-99.99,,,0.00,weatherlink.com 1.10,2013-05-22 22:32:00,
2013-05-22 18:47:00,90.6,67.0,29.73,SSE,153,0.0,-999.0,46,-99.99,,,0.00,weatherlink.com 1.10,2013-05-22 22:47:00,
2013-05-22 19:02:00,90.6,67.0,29.73,NE,36,1.0,-999.0,46,-99.99,,,0.00,weatherlink.com 1.10,2013-05-22 23:02:00,
2013-05-22 19:17:00,89.9,67.0,29.73,SSW,198,0.0,-999.0,47,-99.99,,,0.00,weatherlink.com 1.10,2013-05-22 23:17:00,
2013-05-22 19:25:00,89.1,66.9,29.74,West,279,1.0,1.0,48,0.00,,,0.00,Wunderground v.1.15,2013-05-22 23:25:00,
2013-05-22 19:33:00,88.3,67.0,29.74,WNW,288,0.0,-999.0,49,-99.99,,,0.00,weatherlink.com 1.10,2013-05-22 23:33:00,
2013-05-22 19:40:00,87.6,66.1,29.74,SW,232,0.0,1.0,49,0.00,,,0.00,Wunderground v.1.15,2013-05-22 23:40:00,
2013-05-22 19:45:00,87.1,66.2,29.75,SSW,193,0.0,1.0,50,0.00,,,0.00,Wunderground v.1.15,2013-05-22 23:45:00,
2013-05-22 19:48:00,86.8,66.0,29.75,SSE,154,1.0,-999.0,50,-99.99,,,0.00,weatherlink.com 1.10,2013-05-22 23:48:00,
2013-05-22 19:55:00,86.1,65.9,29.76,WSW,238,1.0,1.0,51,0.00,,,0.00,Wunderground v.1.15,2013-05-22 23:55:00,
2013-05-22 20:02:00,85.6,66.0,29.76,West,277,0.0,-999.0,52,-99.99,,,0.00,weatherlink.com 1.10,2013-05-23 00:02:00,
2013-05-22 20:10:00,85.1,65.5,29.76,SSW,200,1.0,1.0,52,0.00,,,0.00,Wunderground v.1.15,2013-05-23 00:10:00,
2013-05-22 20:18:00,84.6,66.0,29.78,West,267,4.0,-999.0,54,-99.99,,,0.00,weatherlink.com 1.10,2013-05-23 00:18:00,
2013-05-22 20:25:00,81.7,63.4,29.80,West,271,6.0,14.0,54,0.00,,,0.00,Wunderground v.1.15,2013-05-23 00:25:00,
2013-05-22 20:30:00,78.8,62.3,29.80,NW,304,9.0,9.0,57,0.00,,,0.00,Wunderground v.1.15,2013-05-23 00:30:00,
2013-05-22 20:33:00,77.8,63.0,29.81,West,264,14.0,-999.0,60,-99.99,,,0.00,weatherlink.com 1.10,2013-05-23 00:33:00,
2013-05-22 20:40:00,76.1,63.0,29.82,West,280,7.0,7.0,64,0.00,,,0.00,Wunderground v.1.15,2013-05-23 00:40:00,
2013-05-22 20:45:00,75.0,63.3,29.82,NW,312,7.0,8.0,67,0.00,,,0.00,Wunderground v.1.15,2013-05-23 00:45:00,
2013-05-22 20:49:00,74.0,64.0,29.82,West,269,10.0,-999.0,70,-99.99,,,0.00,weatherlink.com 1.10,2013-05-23 00:49:00,
2013-05-22 20:55:00,72.9,62.9,29.82,SW,222,6.0,8.0,71,0.00,,,0.00,Wunderground v.1.15,2013-05-23 00:55:00,
2013-05-22 21:00:00,72.4,63.3,29.83,WSW,245,5.0,5.0,73,0.00,,,0.00,Wunderground v.1.15,2013-05-23 01:00:00,
2013-05-22 21:03:00,72.2,64.0,29.84,WNW,303,2.0,-999.0,74,-99.99,,,0.00,weatherlink.com 1.10,2013-05-23 01:03:00,
2013-05-22 21:10:00,71.7,64.1,29.85,NW,325,2.0,2.0,77,0.00,,,0.01,Wunderground v.1.15,2013-05-23 01:10:00,
2013-05-22 21:18:00,71.0,64.0,29.85,NE,41,0.0,-999.0,79,-99.99,,,0.02,weatherlink.com 1.10,2013-05-23 01:18:00,
2013-05-22 21:20:00,70.9,64.1,29.85,NE,40,1.0,1.0,79,0.16,,,0.03,Wunderground v.1.15,2013-05-23 01:20:00,
2013-05-22 21:25:00,70.4,64.3,29.86,NE,40,0.0,8.0,81,0.10,,,0.03,Wunderground v.1.15,2013-05-23 01:25:00,
2013-05-22 21:34:00,69.9,65.0,29.87,NE,46,0.0,-999.0,83,-99.99,,,0.04,weatherlink.com 1.10,2013-05-23 01:34:00,
2013-05-22 21:35:00,69.8,64.4,29.87,NE,47,0.0,8.0,83,0.06,,,0.04,Wunderground v.1.15,2013-05-23 01:35:00,
2013-05-22 21:45:00,69.4,64.4,29.87,NE,49,0.0,8.0,84,0.04,,,0.04,Wunderground v.1.15,2013-05-23 01:45:00,
2013-05-22 21:49:00,69.2,64.0,29.87,NE,49,0.0,-999.0,84,-99.99,,,0.04,weatherlink.com 1.10,2013-05-23 01:49:00,
2013-05-22 21:55:00,68.7,64.3,29.86,NE,46,0.0,8.0,86,0.00,,,0.04,Wunderground v.1.15,2013-05-23 01:55:00,
2013-05-22 22:05:00,68.2,64.2,29.86,NE,46,0.0,8.0,87,0.00,,,0.04,Wunderground v.1.15,2013-05-23 02:05:00,
2013-05-22 22:15:00,68.0,64.3,29.86,SSE,167,0.0,8.0,88,0.00,,,0.04,Wunderground v.1.15,2013-05-23 02:15:00,
2013-05-22 22:20:00,67.8,64.0,29.86,ENE,67,0.0,-999.0,88,-99.99,,,0.04,weatherlink.com 1.10,2013-05-23 02:20:00,
2013-05-22 22:34:00,67.4,64.0,29.84,NE,48,0.0,-999.0,88,-99.99,,,0.04,weatherlink.com 1.10,2013-05-23 02:34:00,
2013-05-22 22:49:00,67.5,64.0,29.84,NE,48,0.0,-999.0,89,-99.99,,,0.04,weatherlink.com 1.10,2013-05-23 02:49:00,
2013-05-22 23:04:00,67.6,65.0,29.84,WNW,289,1.0,-999.0,90,-99.99,,,0.04,weatherlink.com 1.10,2013-05-23 03:04:00,
2013-05-22 23:19:00,67.3,64.0,29.83,WNW,289,0.0,-999.0,90,-99.99,,,0.04,weatherlink.com 1.10,2013-05-23 03:19:00,
2013-05-22 23:34:00,67.0,64.0,29.82,North,355,0.0,-999.0,90,-99.99,,,0.04,weatherlink.com 1.10,2013-05-23 03:34:00,
2013-05-22 23:49:00,66.9,64.0,29.83,ENE,61,0.0,-999.0,91,-99.99,,,0.04,weatherlink.com 1.10,2013-05-23 03:49:00,